軌道要素
Epoch 2002 Feb. 15.0 TT = JDT 2452320.5
T 2001 Sept. 11.58377 TT Rudenko
q 3.9990921 (2000.0) P Q
n 0.05468081 Peri. 8.58670 -0.82087431 -0.56740461
a 6.8745787 Node 136.63184 +0.51820529 -0.78780026
e 0.4182782 Incl. 5.42671 +0.24005966 -0.23963045
P 18.0
From 115 observations 2002 Mar. 5-2020 Apr. 21, mean residual 0".4.
|